Home > Weather > Hohhot > Past weeks

Flag for China Weather for the Past 2 Weeks in Hohhot, Inner Mongolia, China

Now
30 °F

Passing clouds.


Feels Like: 27 °F
Forecast: 29 / 44 °F
Wind: 3 mph from Northeast

Location: Hohhot Airport

Current Time: Feb 11, 2016 at 4:28:21 AM

Latest Report: Feb 11, 2016 at 3:00 AM


Visibility: N/A

Pressure: 29.80 "Hg (26.11 "Hg at 1053m altitude)

Humidity: 80%

Dew point: 25 °F

Location of HohhotLocation

Historic Weather in Hohhot — Graph

°F

Hohhot Temperature Yesterday

Maximum temperature yesterday: 50 °F (at 4:00 PM)
Minimum temperature yesterday: 18 °F (at 2:00 AM)
Average temperature yesterday: 33 °F

High & Low Weather Summary for the Past Weeks

 TemperatureHumidityPressure
High50 °F (Feb 10, 4:00 PM)80% (Feb 11, 3:00 AM)30.57 "Hg (Feb 11, 3:00 AM)
Low-9 °F (Jan 27, 7:00 AM)20% (Feb 10, 1:00 PM)29.77 "Hg (Feb 10, 3:00 PM)
Average14 °F55%30.24 "Hg
* Reported Jan 27 3:00 AM — Feb 11 3:00 AM, Hohhot, Weather by CustomWeather, © 2016

Note: Actual official high and low records may vary slightly from our data, if they occured in-between our weather recording intervals... More about our weather records

Advertising

Hohhot Weather History for the Previous 24 Hours

 ConditionsComfort  
Time TempWeatherWind HumidityBarometerVisibility
3:00 AM
Thu, Feb 11
30 °FPassing clouds.3 mph80%29.80 "HgN/A
2:00 AM32 °FPassing clouds.6 mph69%29.80 "HgN/A
1:00 AM32 °FPassing clouds.3 mph75%29.80 "HgN/A
12:00 AM34 °FPassing clouds.6 mph65%29.80 "HgN/A
11:00 PM
Wed, Feb 10
37 °FPassing clouds.6 mph56%29.80 "HgN/A
10:00 PM36 °FPassing clouds.6 mph60%29.80 "Hg5 mi
9:00 PM36 °FClear.6 mph56%29.80 "Hg5 mi
8:00 PM36 °FClear.6 mph56%29.80 "Hg5 mi
7:00 PM36 °FClear.6 mph56%29.77 "Hg4 mi
6:00 PM41 °FClear.3 mph39%29.77 "Hg5 mi
5:00 PM46 °FSunny.3 mph27%29.77 "Hg10 mi
4:00 PM50 °FSunny.1 mph22%29.77 "Hg10 mi
3:00 PM48 °FSunny.1 mph21%29.77 "Hg10 mi
2:00 PM48 °FSunny.1 mph21%29.80 "Hg10 mi
1:00 PM48 °FSunny.1 mph20%29.83 "Hg10 mi
12:00 PM45 °FSunny.1 mph25%29.86 "Hg10 mi
11:00 AM41 °FPassing clouds.3 mph33%29.89 "HgN/A
10:00 AM34 °FSunny.6 mph48%29.89 "Hg10 mi
9:00 AM27 °FSunny.6 mph59%29.89 "Hg10 mi
8:00 AM18 °FPassing clouds.6 mph68%29.86 "HgN/A
7:00 AM19 °FPassing clouds.8 mph68%29.86 "HgN/A
6:00 AM18 °FPassing clouds.6 mph73%29.86 "HgN/A
5:00 AM21 °FClear.8 mph68%29.86 "Hg10 mi
4:00 AM19 °FClear.6 mph73%29.86 "Hg10 mi
Weather by CustomWeather, © 2016

See weather overviewHow to use our weather pages